EJU5391 EDDS-LOWI

Flight info

Callsign EJU5391
Flight time 0h 39m
Altitude 19000
Route ABTAL4H ABTAL L173 RIXED Y161 MANAL M736 TULSI TULSI3A
Aircraft A319/M-SDE3FGHIRWY/LB1

Departure

Time 2026-05-01 13:40
Airport Stuttgart Airport (EDDS)

Arrival

Time 2026-05-01 14:19
Airport Innsbruck Airport (LOWI)
Time Latitude Longitude Altitude Speed Heading
2026-05-01 13:12 48.68944 9.19644 1308 ft 0 kts 345°
2026-05-01 13:33 48.68922 9.19653 1307 ft 2 kts 345°
2026-05-01 13:33 48.68893 9.19663 1306 ft 2 kts
2026-05-01 13:34 48.68865 9.19647 1305 ft 2 kts 41°
2026-05-01 13:34 48.68853 9.19623 1306 ft 0 kts 68°
2026-05-01 13:37 48.68863 9.19674 1304 ft 8 kts 77°
2026-05-01 13:37 48.68883 9.19784 1301 ft 7 kts 73°
2026-05-01 13:38 48.68827 9.19908 1294 ft 10 kts 147°
2026-05-01 13:38 48.68769 9.19948 1290 ft 9 kts 163°
2026-05-01 13:38 48.68730 9.19966 1288 ft 4 kts 162°
2026-05-01 13:39 48.68696 9.19981 1286 ft 9 kts 165°
2026-05-01 13:39 48.68610 9.20035 1283 ft 14 kts 138°
2026-05-01 13:39 48.68599 9.20161 1280 ft 13 kts 73°
2026-05-01 13:39 48.68651 9.20426 1271 ft 58 kts 73°
2026-05-01 13:40 48.68837 9.21403 1247 ft 131 kts 73°
2026-05-01 13:40 48.69137 9.22945 1451 ft 165 kts 76°
2026-05-01 13:40 48.69411 9.24563 2262 ft 159 kts 76°
2026-05-01 13:40 48.69695 9.26126 3102 ft 154 kts 76°
2026-05-01 13:41 48.69984 9.27707 3694 ft 166 kts 77°
2026-05-01 13:41 48.70317 9.29500 4191 ft 186 kts 76°
2026-05-01 13:41 48.70697 9.31469 4711 ft 204 kts 76°
2026-05-01 13:41 48.71109 9.33616 4965 ft 221 kts 75°
2026-05-01 13:42 48.71546 9.35873 4993 ft 223 kts 75°
2026-05-01 13:42 48.71986 9.38153 5000 ft 223 kts 75°
2026-05-01 13:42 48.72419 9.40403 5004 ft 223 kts 76°
2026-05-01 13:42 48.72855 9.42686 5008 ft 223 kts 76°
2026-05-01 13:43 48.73206 9.44979 5087 ft 227 kts 89°
2026-05-01 13:43 48.72890 9.47316 5751 ft 232 kts 116°
2026-05-01 13:43 48.71917 9.49169 6807 ft 230 kts 141°
2026-05-01 13:43 48.70472 9.50200 7725 ft 236 kts 166°
2026-05-01 13:44 48.68802 9.50584 8381 ft 251 kts 167°
2026-05-01 13:44 48.67027 9.51079 8933 ft 269 kts 167°
2026-05-01 13:44 48.65141 9.51627 9611 ft 282 kts 166°
2026-05-01 13:44 48.63193 9.52223 10485 ft 286 kts 165°
2026-05-01 13:45 48.61205 9.52861 11152 ft 298 kts 165°
2026-05-01 13:45 48.59118 9.53546 11622 ft 316 kts 165°
2026-05-01 13:45 48.56892 9.54285 12053 ft 335 kts 165°
2026-05-01 13:45 48.54545 9.55066 12435 ft 353 kts 165°
2026-05-01 13:46 48.52091 9.55881 12883 ft 367 kts 165°
2026-05-01 13:46 48.49564 9.56717 13588 ft 373 kts 166°
2026-05-01 13:46 48.47020 9.57558 14325 ft 377 kts 165°
2026-05-01 13:46 48.44445 9.58409 15035 ft 381 kts 165°
2026-05-01 13:47 48.41837 9.59272 15728 ft 385 kts 165°
2026-05-01 13:47 48.39190 9.60148 16401 ft 389 kts 165°
2026-05-01 13:47 48.36521 9.61031 17055 ft 393 kts 165°
2026-05-01 13:47 48.33875 9.62013 17675 ft 396 kts 162°
2026-05-01 13:48 48.31244 9.63246 18284 ft 399 kts 159°
2026-05-01 13:48 48.28577 9.64605 18892 ft 402 kts 159°
2026-05-01 13:48 48.25920 9.65944 19486 ft 406 kts 161°
2026-05-01 13:48 48.23162 9.66977 20036 ft 411 kts 168°
2026-05-01 13:49 48.20329 9.67537 20580 ft 417 kts 174°
2026-05-01 13:49 48.17435 9.67662 21113 ft 421 kts 178°
2026-05-01 13:49 48.14532 9.67643 21631 ft 425 kts 179°
2026-05-01 13:49 48.11576 9.67770 22130 ft 427 kts 171°
2026-05-01 13:50 48.08711 9.68951 22621 ft 427 kts 155°
2026-05-01 13:50 48.06168 9.71187 23109 ft 426 kts 140°
2026-05-01 13:50 48.03911 9.74011 23598 ft 428 kts 137°
2026-05-01 13:50 48.01648 9.76970 24040 ft 432 kts 137°
2026-05-01 13:51 47.99383 9.79933 24476 ft 436 kts 137°
2026-05-01 13:51 47.97117 9.82871 24909 ft 439 kts 137°
2026-05-01 13:51 47.94778 9.85879 25333 ft 443 kts 137°
2026-05-01 13:51 47.92466 9.88836 25739 ft 446 kts 137°
2026-05-01 13:52 47.90099 9.91852 26143 ft 449 kts 137°
2026-05-01 13:52 47.87707 9.94882 26523 ft 452 kts 137°
2026-05-01 13:52 47.85304 9.97919 26900 ft 455 kts 137°
2026-05-01 13:52 47.82807 10.00915 27272 ft 458 kts 140°
2026-05-01 13:53 47.80232 10.03792 27622 ft 462 kts 141°
2026-05-01 13:53 47.75069 10.09522 28414 ft 464 kts 141°
2026-05-01 13:53 47.72488 10.12376 28915 ft 463 kts 141°
2026-05-01 13:54 47.69922 10.15211 29412 ft 461 kts 141°
2026-05-01 13:54 47.67354 10.18045 29869 ft 460 kts 141°
2026-05-01 13:54 47.64790 10.20872 30315 ft 460 kts 140°
2026-05-01 13:54 47.62250 10.23668 30751 ft 460 kts 140°
2026-05-01 13:55 47.59685 10.26490 31170 ft 460 kts 140°
2026-05-01 13:55 47.57106 10.29324 31342 ft 463 kts 140°
2026-05-01 13:55 47.51962 10.34968 30618 ft 461 kts 140°
2026-05-01 13:56 47.49391 10.37786 29558 ft 461 kts 140°
2026-05-01 13:56 47.46884 10.40526 28885 ft 441 kts 140°
2026-05-01 13:56 47.44484 10.43140 28221 ft 422 kts 140°
2026-05-01 13:56 47.42174 10.45654 27598 ft 403 kts 140°
2026-05-01 13:57 47.39951 10.47971 27018 ft 388 kts 144°
2026-05-01 13:57 47.38407 10.49320 26647 ft 378 kts 147°
2026-05-01 13:57 47.35415 10.51710 25963 ft 359 kts 148°
2026-05-01 13:57 47.33266 10.53397 25475 ft 346 kts 148°
2026-05-01 13:58 47.31166 10.55052 24907 ft 337 kts 148°
2026-05-01 13:58 47.29132 10.56662 24240 ft 331 kts 147°
2026-05-01 13:58 47.27267 10.58517 23877 ft 317 kts 127°
2026-05-01 13:58 47.26231 10.61228 23648 ft 296 kts 98°
2026-05-01 13:59 47.26152 10.64133 23422 ft 279 kts 74°
2026-05-01 13:59 47.26844 10.66690 23170 ft 268 kts 53°
2026-05-01 13:59 47.28134 10.68626 22870 ft 262 kts 33°
2026-05-01 13:59 47.29778 10.69663 22505 ft 262 kts 12°
2026-05-01 14:00 47.31593 10.69706 22138 ft 265 kts 351°
2026-05-01 14:00 47.33339 10.68735 21778 ft 269 kts 337°
2026-05-01 14:00 47.34971 10.67445 21398 ft 270 kts 335°
2026-05-01 14:00 47.36609 10.66111 21032 ft 269 kts 335°
2026-05-01 14:01 47.38244 10.64779 20694 ft 268 kts 335°
2026-05-01 14:01 47.39879 10.63446 20351 ft 267 kts 335°
2026-05-01 14:01 47.41403 10.61862 19997 ft 271 kts 316°
2026-05-01 14:01 47.42394 10.59519 19700 ft 276 kts 292°
2026-05-01 14:02 47.42676 10.56712 19385 ft 280 kts 267°
2026-05-01 14:02 47.42168 10.53964 19057 ft 282 kts 242°
2026-05-01 14:02 47.40934 10.51736 18708 ft 281 kts 216°
2026-05-01 14:02 47.39208 10.50460 18370 ft 277 kts 190°
2026-05-01 14:03 47.37336 10.50310 18033 ft 269 kts 166°
2026-05-01 14:03 47.35602 10.51221 17705 ft 261 kts 148°
2026-05-01 14:03 47.34026 10.52543 17369 ft 261 kts 146°
2026-05-01 14:03 47.32462 10.53888 17036 ft 261 kts 146°
2026-05-01 14:04 47.30897 10.55201 16729 ft 260 kts 147°
2026-05-01 14:04 47.29311 10.56505 16434 ft 259 kts 147°
2026-05-01 14:04 47.27772 10.57846 16130 ft 255 kts 136°
2026-05-01 14:04 47.26964 10.59082 15909 ft 249 kts 120°
2026-05-01 14:05 47.26170 10.62153 15531 ft 238 kts 92°
2026-05-01 14:05 47.26262 10.64524 15199 ft 234 kts 73°
2026-05-01 14:05 47.26888 10.66686 14871 ft 231 kts 56°
2026-05-01 14:05 47.27981 10.68414 14726 ft 230 kts 37°
2026-05-01 14:06 47.29393 10.69498 14671 ft 233 kts 19°
2026-05-01 14:06 47.31020 10.69814 14647 ft 238 kts 359°
2026-05-01 14:06 47.32639 10.69262 14633 ft 244 kts 339°
2026-05-01 14:06 47.34052 10.67858 14623 ft 250 kts 318°
2026-05-01 14:07 47.35048 10.65738 14416 ft 254 kts 295°
2026-05-01 14:07 47.35434 10.63217 14129 ft 259 kts 272°
2026-05-01 14:07 47.35134 10.60589 13836 ft 262 kts 249°
2026-05-01 14:08 47.32719 10.56803 13365 ft 253 kts 201°
2026-05-01 14:08 47.31015 10.56195 13367 ft 251 kts 179°
2026-05-01 14:08 47.29322 10.56543 13364 ft 247 kts 157°
2026-05-01 14:08 47.27824 10.57698 13350 ft 242 kts 134°
2026-05-01 14:09 47.27006 10.59718 13332 ft 229 kts 95°
2026-05-01 14:09 47.27282 10.61963 13339 ft 225 kts 56°
2026-05-01 14:09 47.28382 10.63563 13347 ft 227 kts 39°
2026-05-01 14:09 47.29437 10.65205 13197 ft 220 kts 62°
2026-05-01 14:10 47.29778 10.67369 12813 ft 221 kts 87°
2026-05-01 14:10 47.29718 10.69639 12290 ft 226 kts 91°
2026-05-01 14:10 47.29652 10.71945 11914 ft 226 kts 89°
2026-05-01 14:10 47.29645 10.74264 11512 ft 227 kts 88°
2026-05-01 14:11 47.29686 10.76584 11140 ft 225 kts 86°
2026-05-01 14:11 47.29847 10.81160 10491 ft 225 kts 85°
2026-05-01 14:11 47.29949 10.83464 10118 ft 226 kts 85°
2026-05-01 14:12 47.30055 10.85762 9774 ft 225 kts 85°
2026-05-01 14:12 47.30164 10.88057 9426 ft 225 kts 84°
2026-05-01 14:12 47.30273 10.90348 9081 ft 226 kts 84°
2026-05-01 14:12 47.30384 10.92654 8721 ft 226 kts 85°
2026-05-01 14:13 47.30497 10.94984 8351 ft 226 kts 85°
2026-05-01 14:13 47.30568 10.96482 8113 ft 223 kts 85°
2026-05-01 14:13 47.30712 10.99490 7638 ft 218 kts 85°
2026-05-01 14:13 47.30817 11.01680 7283 ft 207 kts 84°
2026-05-01 14:14 47.30915 11.03731 6957 ft 198 kts 84°
2026-05-01 14:14 47.31003 11.05716 6632 ft 193 kts 88°
2026-05-01 14:14 47.30851 11.07640 6336 ft 188 kts 103°
2026-05-01 14:14 47.30380 11.09406 6043 ft 182 kts 112°
2026-05-01 14:15 47.29830 11.11063 5744 ft 177 kts 113°
2026-05-01 14:15 47.29292 11.12663 5458 ft 171 kts 113°
2026-05-01 14:15 47.28779 11.14197 5214 ft 168 kts 112°
2026-05-01 14:15 47.28269 11.15735 4933 ft 167 kts 112°
2026-05-01 14:16 47.27773 11.17234 4695 ft 158 kts 112°
2026-05-01 14:16 47.27294 11.18685 4417 ft 155 kts 112°
2026-05-01 14:16 47.26827 11.20103 4176 ft 155 kts 112°
2026-05-01 14:16 47.26357 11.21528 3922 ft 151 kts 112°
2026-05-01 14:17 47.25909 11.22883 3672 ft 143 kts 112°
2026-05-01 14:17 47.25487 11.24159 3399 ft 138 kts 112°
2026-05-01 14:17 47.25126 11.25434 3145 ft 131 kts 95°
2026-05-01 14:17 47.25147 11.26808 2998 ft 138 kts 75°
2026-05-01 14:18 47.25351 11.28155 2768 ft 133 kts 79°
2026-05-01 14:18 47.25517 11.29514 2527 ft 136 kts 80°
2026-05-01 14:18 47.25650 11.30898 2316 ft 137 kts 82°
2026-05-01 14:18 47.25739 11.31831 2167 ft 137 kts 78°
2026-05-01 14:19 47.25934 11.33635 1946 ft 126 kts 77°
2026-05-01 14:19 47.26047 11.34652 1923 ft 61 kts 80°
2026-05-01 14:19 47.26091 11.35060 1921 ft 34 kts 81°
2026-05-01 14:19 47.26093 11.35234 1919 ft 9 kts 140°
2026-05-01 14:20 47.26026 11.35264 1919 ft 10 kts 171°
2026-05-01 14:20 47.25917 11.35284 1919 ft 5 kts 207°
2026-05-01 14:20 47.25899 11.35253 1919 ft 2 kts 255°
2026-05-01 14:21 47.25895 11.35217 1919 ft 4 kts 262°
2026-05-01 14:21 47.25890 11.35166 1919 ft 5 kts 260°
2026-05-01 14:21 47.25883 11.35124 1920 ft 1 kts 232°
2026-05-01 14:22 47.25835 11.35117 1919 ft 0 kts 169°
2026-05-01 14:22 47.25830 11.35119 1919 ft 0 kts 169°